Location: Arbon
(43.0005°N, 0.7472°E)
Time: 15:23:57
(UTC+00:00)

Courier 1B Rocket - Pass Details

Date: 30 November 2020
Orbit: 920 x 1202 km, 28.2° (Epoch: 21 January)

Event Time Altitude Azimuth Distance (km) Brightness Sun altitude
Rises 10:20:49 0° 253° (WSW) 4,019 8.2 22.4°
Reaches altitude 10° 10:27:01 10° 216° (SW) 2,977 8.1 22.8°
Maximum altitude 10:28:04 10° 207° (SSW) 2,936 8.3 22.8°
Drops below altitude 10° 10:29:08 10° 199° (SSW) 2,946 8.5 22.9°
Sets 10:35:03 0° 160° (SSE) 3,806 9.6 23.2°
